Location: Sevilla
(37.3933°N, 5.9839°W)
Time: 04:24:16
(UTC+02:00)

Transit 2A - Pass Details

Date: 03 July 2024
Orbit: 591 x 960 km, 66.7° (Epoch: 15 July)

Event Time Altitude Azimuth Distance (km) Brightness Sun altitude
Rises 14:12:53 0° 196° (SSW) 2,991 9.2 75.1°
Reaches altitude 10° 14:15:06 10° 193° (SSW) 2,130 8.7 75.2°
Maximum altitude 14:19:53 61° 114° (ESE) 836 7.7 75.4°
Drops below altitude 10° 14:25:14 10° 34° (NE) 2,385 8.6 75.5°
Sets 14:27:50 0° 32° (NNE) 3,382 9.2 75.5°
